{"data":{"norad_id":52785,"intl_designator":"2022-058A","name":"GEESAT-1 01","alt_names":[],"object_type":"PAYLOAD","status":"ACTIVE","operator":null,"country":"PRC","launch_date":"2022-06-02","launch_site_code":"XICLF","launch_vehicle":null,"mission":null,"orbit_class":"UNKNOWN","rcs_meters":null,"size_class":null,"mass_kg":null,"dimensions":null,"purposes":[],"wikipedia_slug":null,"has_3d_model":false,"image_url":null,"decayed_at":null,"tle_current":{"epoch":"2026-05-25T04:26:53.235168Z","epoch_age_seconds":52367,"freshness":"FRESH","line1":"1 52785U 22058A   26145.18533837  .00001716  00000+0  24540-3 0  9992","line2":"2 52785  49.9945 308.7031 0022659 173.3458 186.7784 14.81287228216526","mean_motion":14.81287228,"eccentricity":0.0022659,"inclination_deg":49.9945,"raan_deg":308.7031,"arg_perigee_deg":173.3458,"mean_anomaly_deg":186.7784,"bstar":0.0002454,"rev_number":21652,"period_min":97.212746642274,"perigee_km":609.39491802769,"apogee_km":641.13293033589,"semimajor_km":7003.4009241818,"source":"CELESTRAK","updated_at":"2026-05-25T13:37:57.888179Z"}}}